Погода в Тамакульском

Россия / Курганская область     56°28′19″N   63°03′12″E
темп.,
°C
ветер,
м/с
пор.,
м/с
влажн.,
%
обл.,
%
осадки,
мм/ч
давл.,
гПа
погр.,
м
6 марта, сб
сб623:00−6зсз3888100 0.1 999268
02:00−11з5119066 0.0 1001255
05:00−13з6138832 0.0 1005330
08:00−15зюз410920 0.0 1007192
11:00−9зюз610860 0.0 1007491
14:00−6зюз6108143 0.0 10071071
17:00−6зюз6118571 0.2 1007839
20:00−10з4108797 0.2 1008224
7 марта, вс
вс723:00−14з348879 0.2 101154
02:00−17з33890 0.0 101220
05:00−19зюз23926 0.0 101220
08:00−19ююз229654 0.0 101220
11:00−14ю239275 0.0 1012207
14:00−11ююз1185100 0.0 1009310
17:00−10с1185100 0.0 1007235
20:00−13ссз3592100 0.0 100693
8 марта, пн
пн823:00−17ссз459394 0.0 100677
02:00−19сз44990 0.0 100757
05:00−20зсз449919 0.0 100866
08:00−21зюз34940 0.0 100936
11:00−16ююз469118 0.0 1009231
14:00−12ю5888100 0.0 1007432
17:00−10ю61192100 0.1 1005643
20:00−10ю41192100 0.2 1005267
9 марта, вт
вт923:00−10ююз5129053 0.2 1005231
02:00−10ююз4119285 0.0 1004246
05:00−8ююз5129193 0.0 1003277
08:00−7ююз61491100 0.0 1002436
11:00−4юз91391100 0.2 10011007
14:00−3зюз6107698 0.1 10031501
17:00−5зюз9167488 1.0 10001271
20:00−8зюз8167932 0.0 1002784
10 марта, ср
ср1023:00−11зюз6148419 0.0 1006387
02:00−14зюз49900 0.0 1008151
05:00−16з34930 0.0 101049
08:00−18зсз22979 0.0 101020
11:00−13ссз019248 0.0 1010233
14:00−10зюз1186100 0.1 1009421
17:00−10з0188100 0.1 1008296
20:00−13св1195100 0.0 100820